This demonstration page uses our WeatherBlox Daily Observations layout. Learn more.

Left ArrowRight Arrow

36.17497, -115.13722

Hourly Observations for September 17, 2021

Temp ( °F °C ) Dew Point ( °F °C ) Humidity (%) Winds ( mph kmh ) Pressure ( in mb ) Visibility ( mi km ) Precip ( " mm )
12:53 am 00:53 Clear 80 26.7 20 -6.7 10 10 NNW 10 17 29.79 1009 10 16 N/A
1:53 am 01:53 Clear 76 24.4 22 -5.6 13 13 WNW 7 11 29.80 1009 10 16 N/A
2:53 am 02:53 Clear 74 23.3 20 -6.7 13 13 WNW 10 17 29.81 1010 10 16 N/A
3:53 am 03:53 Clear 72 22.2 23 -5 16 16 WNW 3 6 29.83 1010 10 16 N/A
4:53 am 04:53 Clear 71 21.7 28 -2.2 20 20 NNW 5 7 29.85 1011 10 16 N/A
5:53 am 05:53 Clear 70 21.1 23 -5 17 17 NW 3 6 29.86 1011 10 16 N/A
6:53 am 06:53 Sunny 71 21.7 26 -3.3 19 19 WNW 3 6 29.90 1013 10 16 N/A
7:53 am 07:53 Sunny 75 23.9 31 -0.6 20 20 N N/A 29.93 1014 10 16 N/A
8:53 am 08:53 Sunny 81 27.2 26 -3.3 13 13 W 3 6 29.94 1014 10 16 N/A
9:53 am 09:53 Mostly Cloudy 84 28.9 27 -2.8 12 12 SSE 7 11 29.98 1015 10 16 N/A
10:53 am 10:53 Mostly Cloudy with Light Rain 86 30 48 8.9 27 27 WSW 18 30 29.99 1016 10 16 0.00 0.00
11:53 am 11:53 Cloudy with Light Rain 85 29.4 52 11.1 32 32 WNW 6 9 30.00 1016 10 16 0.00 0.00
12:53 pm 12:53 Mostly Cloudy 87 30.6 52 11.1 30 30 N 3 6 29.99 1016 10 16 0.00 0.00
1:53 pm 13:53 Mostly Cloudy 90 32.2 51 10.6 26 26 N N/A 29.98 1015 10 16 0.00 0.00
2:53 pm 14:53 Mostly Sunny 92 33.3 50 10 24 24 E 9 15 29.96 1015 10 16 N/A
3:53 pm 15:53 Cloudy 91 32.8 43 6.1 19 19 N N/A 29.96 1015 10 16 N/A
4:53 pm 16:53 Sunny 92 33.3 41 5 17 17 E 7 11 29.95 1014 10 16 N/A
5:53 pm 17:53 Sunny 90 32.2 44 6.7 20 20 N N/A 29.94 1014 10 16 N/A
6:53 pm 18:53 Clear 89 31.7 47 8.3 23 23 NE 8 13 29.94 1014 10 16 N/A
7:53 pm 19:53 Clear 87 30.6 49 9.4 27 27 NE 7 11 29.94 1014 10 16 N/A
8:53 pm 20:53 Clear 86 30 49 9.4 28 28 N 3 6 29.95 1014 10 16 N/A
9:53 pm 21:53 Clear 83 28.3 49 9.4 31 31 WNW 6 9 29.96 1014 10 16 N/A
10:53 pm 22:53 Clear 81 27.2 49 9.4 33 33 NW 5 7 29.96 1015 10 16 N/A
11:53 pm 23:53 Mostly Clear 80 26.7 49 9.4 34 34 NW 7 11 29.96 1015 10 16 N/A

Powered by AerisWeather